Skip Page Navigation
NASA JPL Caltech
NASA Logo - Jet Propulsion Laboratory + View the NASA Portal
+ Center for Near-Earth Object Studies
JPL Home Earth Solar System Stars & Galaxies Technology
JPL Solar System Dynamics
BODIES ORBITS EPHEMERIDES TOOLS PHYSICAL DATA DISCOVERY FAQ SITE MAP
JPL Small-Body Database Browser
Search: [ help ]  
435905 (2009 BN10)
Classification: Inner Main-belt Asteroid          SPK-ID: 2435905
Ephemeris | Orbit Diagram | Orbital Elements | Mission Design | Physical Parameters | Discovery Circumstances ]

[ hide orbit diagram ]

For accurate long-term ephemerides, please instead use our Horizons system.This orbit viewer was implemented using two-body methods, and hence should not be used for determining accurate long-term trajectories (over several years or decades) or planetary encounter circumstances.


[ revert to old Java-based viewer ]

Orbital Elements at Epoch 2459000.5 (2020-May-31.0) TDB
Reference: JPL 10 (heliocentric ecliptic J2000)
 Element Value Uncertainty (1-sigma)   Units 
e .07151516397412305 7.7698e-08  
a 1.985288801841624 1.375e-08 au
q 1.84331054764193 1.562e-07 au
i 24.27329011534993 8.196e-06 deg
node 135.0292542710037 1.8858e-05 deg
peri 297.3702280260825 8.327e-05 deg
M 68.31165200501584 7.0863e-05 deg
tp 2458806.623016650938
(2019-Nov-19.12301665)
0.00020208 TDB
period 1021.724873533106
2.80
1.0614e-05
2.906e-08
d
yr
n .3523453420049633 3.6604e-09 deg/d
Q 2.127267056041318 1.4733e-08 au
  Orbit Determination Parameters
   # obs. used (total)      108  
   data-arc span      5708 days (15.63 yr)  
   first obs. used      2004-06-12  
   last obs. used      2020-01-28  
   planetary ephem.      DE431  
   SB-pert. ephem.      SB431-N16  
   condition code      0  
   norm. resid. RMS      .53647  
   source      ORB  
   producer      Otto Matic  
   solution date      2020-Feb-26 09:57:58  

Additional Information
 Earth MOID = .911837 au 
 Jupiter MOID = 3.01407 au 
 T_jup = 3.744 
[ show covariance matrix ]

Ephemeris | Orbit Diagram | Orbital Elements | Mission Design | Physical Parameters | Discovery Circumstances ]

Physical Parameter Table
Parameter Symbol Value Units Sigma Reference Notes
absolute magnitude H 17.8   n/a MPO456074  

435905 (2009 BN10)          Discovered 2009-Jan-22 by Lowe, A. at Mayhill
Reference: Last Updated: 2015-06-04
Ephemeris | Orbit Diagram | Orbital Elements | Mission Design | Physical Parameters | Discovery Circumstances ]
ABOUT SSD CREDITS/AWARDS PRIVACY/COPYRIGHT GLOSSARY LINKS
FirstGov 2020-Sep-25 12:28 UT
(server date/time)  
NASA Home Page
Site Manager:   Ryan S. Park
Webmaster  Alan B. Chamberlin